User: anonymous   Login
Location: Campillo
(40.8621°N, 4.2488°W)
Time: 09:21:01
(UTC+00:00)
Language:

Cosmos 1844 Rocket - Orbit

View from above orbital plane
View from above orbital plane
View from above satellite
View from above satellite

Ground track
Ground track

The orbit data is extracted from the following two-line orbital elements,

1 17974U 87041B   21216.77123111 -.00000132  00000-0 -41485-4 0  9997
2 17974  71.0079 329.1949 0015967 251.2541 220.0328 14.17275740770323
Epoch (UTC): 04 August 2021 18:30:34
Eccentricity: 0.0015967
inclination: 71.0079°
perigee height: 823 km
apogee height: 846 km
right ascension of ascending node: 329.1949°
argument of perigee: 251.2541°
revolutions per day: 14.17275740
mean anomaly at epoch: 220.0328°
orbit number at epoch: 77032

The dashed part of the orbit path shows where the satellite is in the earth's shadow,  

DLR